Погода в Клаипеде

Погода в Клаипеде : погода сейчас, прогноз погоды и архив. Всё, что Вы хотите узнать о погоде в Клаипеде!

Поиск расширенной информации на нашем сайте:

Другие новости

Новости СМИ2

Главная страница сайта

Новости сайта

03.07.2017

Напоминаем, что на нашем специализированном сайте Метеоцентр.Азия вы можете получить высокодетализированные автоматические прогнозы погоды по пунктам России, СНГ и мира в авиационном формате (включающие направление и скорость ветра, видимость, явления погоды, количество и форму облачности, нижнюю и верхнюю границу облачности).

Рекомендуем: Удобная и быстрая видео афиша для быстрого просмотра новостей

Погода в Клаипеде - сегодня

Время (UTC), дата Ветер
(°,м/с) 
Видим.   Явления Облачность Т
(°С)
Тd
(°С)
f(%) Тe
(°С)
Pmin
(гПа)
dP
(гПа)
Po
(мм)
O2
(г/м3)
Тmin Tmax R s Состояние
почвы
06 20.11.17 020 (С) 2-4{08}  20000 м  в посл. час морось{ливн. осадки}  10/10 630 м 
[Sc]
+2.1 +1.6 96 +1  1001.6  2.7  751  300  +2.1      влажная 
09 20.11.17 010 (С) 1-2{05}  20000 м    9/8 750 м 
[Cu Sc]
+2.5 +2 96 +3  1003.4  1.8  752  300           
12 20.11.17 020 (С) 2-4{07}  20000 м    9/8 750 м средняя 
[Cu Sc|Ac und]
+3 +0.3 82 +2  1004.5  1.1  753  300           
15 20.11.17 360 (С) 1-2{04}  15000 м    10/10 1000 м 
[Sc]
+1.9 +0.8 92 +3  1005.9  1.4  754  301           
18 20.11.17 040 (СВ) 1-1{04}  10 км    9/6 870 м средняя 
[Sc|Ac und]
+0.7 -0.1 94 +1  1007.2  1.3  755  303    +3.8       
21 20.11.17 030 (СВ) 2-2{03}  20000 м    1/0 средняя 
[Ac lent]
-0.2 -0.5 98 -1  1008.5  1.3  756  305           
00 21.11.17 350 (С) 2-3{04}  11000 м  слаб. дождь  10/10 800 м 
[Frnb|Ns]
+1.6 +1.3 98 +1  1008.9  0.4  756  303      0.0     
03 21.11.17 020 (С) 2-3{04}  20000 м  в посл. час дождь  8/8 660 м 
[Cu Sc]
+2 +1.5 96 +1  1009.4  0.5  756  302           
06 21.11.17 320 (СЗ) 1-3{07}  20000 м  {ливн. осадки, дождь}  9/9 600 м 
[Cu Sc]
+3.4 -0.4 76 +4  1009.6  0.2  757  301  -1.4      влажная 
09 21.11.17 280 (З) 3-6{08}  20000 м  в посл. час ливневой дождь  8/3 600 м верхняя 
[Cu med, cong|Ci sp]
+4.8 -1.2 65 +4  1010.2  0.6  757  300           
12 21.11.17 330 (СЗ) 3-7{08}  20000 м  {ливн. осадки}  6/4 600 м верхняя 
[Cu med, cong|Ci sp]
+3.4 +0.5 81 +2  1010.4  0.2  757  301      0.0     
15 21.11.17 260 (З) 3-6{08}  20000 м  в посл. час ливневой дождь  6/6 600 м 
[Cu med, cong]
+3 -0.2 79 +2  1010.1  -0.3  757  302           
18 21.11.17 070 (В) 1-2{08}  8000 м  слаб. морось{ливн. осадки}  10/10 420 м 
[Frnb]
+0.6 +0.1 96 +1  1010.8  0.7  757  304    +5.2     
21 21.11.17 080 (В) 1-2{03}  6000 м  дымка{ливн. осадки}  10/10 1050 м 
[Sc]
+0.4 +0.1 98 +1  1011  0.2  758  305           
00 22.11.17 140 (ЮВ) 1-2{02}  4400 м  дымка{ливн. осадки}  ясно 
+0 -0.3 98 +1  1011.5  0.5  758  305      0.5     
03 22.11.17 080 (В) 2-3{03}  6000 м  дымка  9/9 930 м 
[Sc]
-0.2 -0.5 98 -1  1012  0.5  758  306           
06 22.11.17 120 (ЮВ) 3-5{06}  4900 м  слаб. дождь  10/10 120 м 
[Frnb|Ns]
+1.3 +1 98 1012.6  0.6  759  304  -0.7      влажная 
12 22.11.17 120 (ЮВ) 4-8{08}  10 км  {дождь}  10/10 150 м 
[St]
+0 -0.6 96 -2  1013.1  759  306      0.0     
15 22.11.17 120 (ЮВ) 5-8{10}  14000 м    10/10 210 м 
[St]
-0.1 -1.3 92 -3  1013  -0.1  759  306           
18 22.11.17 120 (ЮВ) 5-8{11}  13000 м    10/10 600 м 
[Sc]
+0.1 -1.7 88 -3  1012.1  -0.9  758  306    +1.4  0.0     
21 22.11.17 130 (ЮВ) 6-11{13}  12000 м  в посл. час дождь{снег}  10/10 360 м 
[Sc]
+0.9 -1.1 86 -2  1011.3  -0.8  758  304           
00 23.11.17 140 (ЮВ) 6-10{12}  5000 м  слаб. дождь{снег}  10/10 180 м 
[Frnb|Ns]
+1.1 +0.6 96 -2  1010.4  -0.9  757  304      0.4     
03 23.11.17 140 (ЮВ) 5-10{11}  5000 м  в посл. час дождь  10/10 120 м 
[St]
+2 +1.7 98 -1  1010  -0.4  757  302           
06 23.11.17 140 (ЮВ) 4-8{11}  3800 м  в посл. час морось{дождь}  10/10 120 м 
[St]
+3 +2.7 98 +1  1010.1  0.1  757  301  +0    0.6    влажная 
09 23.11.17 140 (ЮВ) 4-8{09}  5000 м  дымка  10/0 верхняя 
[Ci]
+4.6 +4.1 97 +3  1010.1  0.1  757  300           
Время (UTC), дата Ветер
(°,м/с) 
Видим.   Явления Облачность Т
(°С)
Тd
(°С)
f(%) Тe
(°С)
Pmin
(гПа)
dP
(гПа)
Po
(мм)
O2
(г/м3)
Тmin Tmax R s Состояние
почвы

Для получения пояснительной информации подведите курсор к названию столбца.

ПОГОДА в Клаипеде - архив

Всё, что Вы хотите узнать о погоде в Клаипеде - удобно и подробно!

Выберите нужную дату (начиная с 1 января 2015* года) и нажмите кнопку "Найти".
Будут отображены архивные сводки погоды по пункту Клаипеда, начиная с указанной даты.


Отображать данные в формате CSV (для использования в таблицах Excel)


Внимание! Наш архив погоды предназначен исключительно для личного некоммерческого использования в познавательных целях. Если Вам необходимы официальные справки о состоянии погоды (для производственных, юридических, коммерческих и т.п. целей), обращайтесь в органы Росгидромета.

*Примечание: данная дата относится к архиву по метеостанциям СССР (Россия, СНГ, Балтия).
Архив по метеостанциям Зарубежной Европы и Азии (кроме Китая) хранится 10 дней, по другим регионам земного шара (Китай, Африка, Америка, Австралия, Океания) - 1 день.

Клаипеда - район местоположения метеостанции


Название, широта, долгота, высота метеостанции:
Клаипеда 55.7°ш. 21.1°д. 7 м над ур. моря [Литва]

Дополнительная информация

В oтличие oт бoльшинства пoгoдных сайтoв мы публикуем пoдрoбную метеoинфoрмацию в детальнoм прoфессиoнальнoм фoрмате.

Характеристики температуры и влажнoсти вoздуха измеряются на высoте 2 м в тени вдали oт зданий и деревьев.
Скoрoсть ветра измеряется на высoте 10 м (на урoвне рoста челoвека скoрoсть ветра ниже в 1.5-2 раза). Если метеoстанция нахoдится в гoрoде или в лесу, тo скoрoсть ветра занижена на 2-4 м/с пo сравнению с oткрытым местoм. Скoрoсть ветра над акватoриями крупных рек и oзёр, а также на вершинах хoлмoв на 2-5 м/с выше, чем в oбычных услoвиях.
Атмoсфернoе давление в разных тoчках местнoсти мoжет значительнo oтличаться oт давления на метеoстанции, в зависимoсти oт услoвий рельефа (при пoдъёме на 10 м давление пoнижается примернo на 1 мм рт.ст.).